Location: ??
(31.9467°N, 34.8903°E)
Time: 18:37:13
(UTC+00:00)

Cosmos 1709 Rocket - Pass Details

Date: 29 October 2020
Orbit: 949 x 1001 km, 82.9° (Epoch: 30 November)

Event Time Altitude Azimuth Distance (km) Brightness Sun altitude
Rises 16:56:17 0° 353° (N) 3,727 7.1 -26.6°
Reaches altitude 10° 16:58:49 10° 353° (N) 2,775 6.4 -27.2°
Maximum altitude 17:05:12 84° 266° (W) 1,010 4.0 -28.5°
Drops below altitude 10° 17:11:33 10° 179° (S) 2,752 6.3 -29.9°
Sets 17:14:03 0° 178° (S) 3,693 7.0 -30.4°
